Find PARUS-T1

NORAD ID: 62656 Int'l Des: NNA 2025-009 Owner: TASA/PYRAS Country: J operational
別名: OBJECT AZ spacetrack TRANSPORTER-12 OBJECT AZ celestrak
LEOCIRCULARRETROGRADESSO

現在のビュー

3D地球を読み込み中...

About PARUS-T1

PARUS-T1 (NORAD 62656) is a satellite launched Jan 14, 2025 by TASA/PYRAS of J. It operates in LEO, CIRCULAR, RETROGRADE, SSO orbit with a mass of 4.00 kg.

次回通過

Passes for default location (London). Set your location on the main map for personalized predictions.

高度履歴

Loading altitude history...

軌道要素

1 62656U 25009AZ 26263.76269144 .00009140 00000-0 27050-3 0 9990
2 62656 97.3891 346.9575 0001537 38.0671 322.0681 15.35117879 93678
Epoch: Sep 20, 2026 • Age: 27 hours

現在のステータス

高度 462.8 km
遠地点 / 近地点 N/A
速度 7.64 km/s
衛星直下点 -0.11°S, 33.85°E
打ち上げ日 Jan 14, 2025
運用期間 1.6 years
タイプ other

技術仕様

分類 Payload
質量 4.00 kg
乾燥質量 4.00 kg
総質量 4.00 kg
長さ 0.30 m
直径 0.10 m
スパン 0.30 m
形状 Box
製造者 PYRAS
バスタイプ Cubesat 3U
フェーズステータス In Orbit
所有者/国 TASA/PYRAS/J

Most Searched